Location: Charbonni�res
(45.9952°N, 2.9982°E)
Time: 16:53:19
(UTC+00:00)

CZ-4C R/B - Pass Details

Date: 29 November 2020
Orbit: 620 x 1382 km, 63.4° (Epoch: 22 January)

Event Time Altitude Azimuth Distance (km) Brightness Sun altitude
Exits shadow 05:11:09 17° 221° (SW) 1,771 3.6 -19.6°
Maximum altitude 05:15:02 83° 309° (NW) 798 1.9 -18.9°
Drops below altitude 10° 05:21:00 10° 38° (NE) 2,612 5.1 -17.9°
Sets 05:23:49 0° 39° (NE) 3,686 5.9 -17.4°
